PORTS® Data Listing: 8773767 Matagorda Bay Entrance Channel, TX

CO-OPS RAW PORTS DATA

************************      PRELIMINARY DATA      ************************** 

     THIS RAW DATA HAS NOT BEEN SUBJECT TO THE NATIONAL OCEAN SERVICE'S        
     QUALITY CONTROL OR QUALITY ASSURANCE PROCEDURES AND DOES NOT MEET         
     THE CRITERIA AND STANDARDS OF OFFICIAL NATIONAL OCEAN SERVICE             
     DATA.  IT IS RELEASED FOR LIMITED PUBLIC USE AS PRELIMINARY DATA TO       
     BE USED ONLY WITH APPROPRIATE CAUTION.                                    

************************      PRELIMINARY DATA      ************************** 


       CD   -   Calendar date
       T    -   Time
       TZ   -   Timezone
       PW   -   Predicted water level (feet above MLLW)
       OW   -   Observed water level (feet above MLLW)
       WS   -   Wind speed (knots)
       WD   -   Wind direction (degrees true)
       WG   -   Wind gust (knots)
       AT   -   Air temperature (degrees farenheit)
       WT   -   Water temperature (degrees farenheit)
       AP   -   Air pressure (millibars)
       SA   -   Salinty (PSU - Practical Salinity Units)
       SG   -   Specific gravity
       RH   -   Relative humidity
       AG   -   Air gap (feet)
       VI   -   Visibility (nautical miles)

       ** NOTE **
       A variable that has its data fields filled with "9"s, indicates that
       data was not collected for that sample period.
       **********


STATION NAME: Matagorda Bay Entrance Channel (8773767)
****************************************************************************************************
    CD       T    TZ    PW     OW    WS   WD   WG    AT    WT    AP    SA    SG     RH    AG   VI
****************************************************************************************************
2019/11/13 21:36 CST    1.19   2.26   11   59   13  46.9  62.4 1019.3 -9.9 -9.999 -99.9 -99.99 -9.99
2019/11/13 21:42 CST    1.19   2.25   11   62   13  46.9  62.4 1019.1 -9.9 -9.999 -99.9 -99.99 -9.99
2019/11/13 21:48 CST    1.19   2.27   11   66   14  47.1  62.4 1019.0 -9.9 -9.999 -99.9 -99.99 -9.99
2019/11/13 21:54 CST    1.20   2.24   11   61   13  47.1  62.4 1019.0 -9.9 -9.999 -99.9 -99.99 -9.99
2019/11/13 22:00 CST    1.19   2.24   11   66   14  47.1  62.4 1018.8 -9.9 -9.999 -99.9 -99.99 -9.99
2019/11/13 22:06 CST    1.19   2.19   10   62   13  47.1  62.2 1018.9 -9.9 -9.999 -99.9 -99.99 -9.99
2019/11/13 22:12 CST    1.19   2.19   10   64   14  47.1  62.2 1019.1 -9.9 -9.999 -99.9 -99.99 -9.99
2019/11/13 22:18 CST    1.19   2.22   10   66   12  47.1  62.2 1019.0 -9.9 -9.999 -99.9 -99.99 -9.99
2019/11/13 22:24 CST    1.19   2.26   10   69   13  47.1  62.2 1019.0 -9.9 -9.999 -99.9 -99.99 -9.99
2019/11/13 22:30 CST    1.19   2.27   10   67   13  47.1  62.2 1019.0 -9.9 -9.999 -99.9 -99.99 -9.99
2019/11/13 22:36 CST    1.19   2.28   10   64   12  46.9  62.2 1018.9 -9.9 -9.999 -99.9 -99.99 -9.99
2019/11/13 22:42 CST    1.19   2.31   11   64   12  47.1  62.1 1018.8 -9.9 -9.999 -99.9 -99.99 -9.99
2019/11/13 22:48 CST    1.19   2.34   11   64   13  47.1  62.1 1018.8 -9.9 -9.999 -99.9 -99.99 -9.99
2019/11/13 22:54 CST    1.19   2.35   10   63   13  47.1  61.9 1018.7 -9.9 -9.999 -99.9 -99.99 -9.99
2019/11/13 23:00 CST    1.19   2.39   10   63   13  47.1  62.1 1018.6 -9.9 -9.999 -99.9 -99.99 -9.99
2019/11/13 23:06 CST    1.19   2.38    9   65   13  47.3  61.9 1018.7 -9.9 -9.999 -99.9 -99.99 -9.99
2019/11/13 23:12 CST    1.19   2.39   10   66   12  47.5  61.9 1018.5 -9.9 -9.999 -99.9 -99.99 -9.99
2019/11/13 23:18 CST    1.18   2.35   10   65   13  47.5  61.9 1018.5 -9.9 -9.999 -99.9 -99.99 -9.99
2019/11/13 23:24 CST    1.18   2.39   10   60   12  47.7  61.9 1018.3 -9.9 -9.999 -99.9 -99.99 -9.99
2019/11/13 23:30 CST    1.18   2.39   10   60   13  47.8  61.9 1018.4 -9.9 -9.999 -99.9 -99.99 -9.99
2019/11/13 23:36 CST    1.18   2.41   10   61   12  47.8  61.9 1018.4 -9.9 -9.999 -99.9 -99.99 -9.99
2019/11/13 23:42 CST    1.18   2.41   10   62   12  48.0  61.9 1018.3 -9.9 -9.999 -99.9 -99.99 -9.99
2019/11/13 23:48 CST    1.18   2.42    9   61   12  48.2  61.9 1018.3 -9.9 -9.999 -99.9 -99.99 -9.99
2019/11/13 23:54 CST    1.18   2.37    8   60   12  48.4  61.9 1018.2 -9.9 -9.999 -99.9 -99.99 -9.99
2019/11/14 00:00 CST    1.18   2.34   10   62   13  48.6  61.9 1018.2 -9.9 -9.999 -99.9 -99.99 -9.99
2019/11/14 00:06 CST    1.18   2.33   11   62   13  48.7  61.9 1018.0 -9.9 -9.999 -99.9 -99.99 -9.99
2019/11/14 00:12 CST    1.18   2.38   10   60   13  48.7  61.7 1018.1 -9.9 -9.999 -99.9 -99.99 -9.99
2019/11/14 00:18 CST    1.18   2.40   10   60   12  48.9  61.7 1018.2 -9.9 -9.999 -99.9 -99.99 -9.99
2019/11/14 00:24 CST    1.18   2.45   10   62   13  48.9  61.7 1018.1 -9.9 -9.999 -99.9 -99.99 -9.99
2019/11/14 00:30 CST    1.18   2.46   10   59   12  49.1  61.7 1018.0 -9.9 -9.999 -99.9 -99.99 -9.99
2019/11/14 00:36 CST    1.18   2.42   12   54   14  49.1  61.7 1018.0 -9.9 -9.999 -99.9 -99.99 -9.99
2019/11/14 00:42 CST    1.18   2.37   11   53   13  49.1  61.7 1017.9 -9.9 -9.999 -99.9 -99.99 -9.99
2019/11/14 00:48 CST    1.18   2.33   12   54   14  49.1  61.7 1017.9 -9.9 -9.999 -99.9 -99.99 -9.99
2019/11/14 00:54 CST    1.18   2.39   11   53   14  49.3  61.7 1018.1 -9.9 -9.999 -99.9 -99.99 -9.99
2019/11/14 01:00 CST    1.18   2.37   11   55   13  49.3  61.7 1018.1 -9.9 -9.999 -99.9 -99.99 -9.99
2019/11/14 01:06 CST    1.18   2.37   13   57   15  49.3  61.7 1018.1 -9.9 -9.999 -99.9 -99.99 -9.99
2019/11/14 01:12 CST    1.18   2.35   12   58   15  49.3  61.7 1018.0 -9.9 -9.999 -99.9 -99.99 -9.99
2019/11/14 01:18 CST    1.18   2.32   12   60   15  49.3  61.7 1018.0 -9.9 -9.999 -99.9 -99.99 -9.99
2019/11/14 01:24 CST    1.18   2.33   14   62   16  49.3  61.5 1017.8 -9.9 -9.999 -99.9 -99.99 -9.99
2019/11/14 01:30 CST    1.17   2.37   13   62   16  49.3  61.5 1017.7 -9.9 -9.999 -99.9 -99.99 -9.99
2019/11/14 01:36 CST    1.17   2.32   12   59   16  49.3  61.5 1017.6 -9.9 -9.999 -99.9 -99.99 -9.99
2019/11/14 01:42 CST    1.17   2.35   12   64   15  49.5  61.5 1017.6 -9.9 -9.999 -99.9 -99.99 -9.99
2019/11/14 01:48 CST    1.16   2.32   13   64   16  49.5  61.5 1017.5 -9.9 -9.999 -99.9 -99.99 -9.99
2019/11/14 01:54 CST    1.16   2.29   13   65   17  49.5  61.5 1017.4 -9.9 -9.999 -99.9 -99.99 -9.99
2019/11/14 02:00 CST    1.15   2.32   12   68   15  49.5  61.5 1017.4 -9.9 -9.999 -99.9 -99.99 -9.99
2019/11/14 02:06 CST    1.15   2.34   11   67   14  49.6  61.5 1017.6 -9.9 -9.999 -99.9 -99.99 -9.99
2019/11/14 02:12 CST    1.14   2.40   11   67   14  49.6  61.5 1017.7 -9.9 -9.999 -99.9 -99.99 -9.99
2019/11/14 02:18 CST    1.13   2.35   11   65   15  49.8  61.5 1017.6 -9.9 -9.999 -99.9 -99.99 -9.99
2019/11/14 02:24 CST    1.12   2.34   11   65   15  50.0  61.5 1017.5 -9.9 -9.999 -99.9 -99.99 -9.99
2019/11/14 02:30 CST    1.11   2.26   12   63   16  50.0  61.5 1017.5 -9.9 -9.999 -99.9 -99.99 -9.99
2019/11/14 02:36 CST    1.10   2.29   13   61   15  50.2  61.5 1017.5 -9.9 -9.999 -99.9 -99.99 -9.99
2019/11/14 02:42 CST    1.09   2.26   12   59   15  50.4  61.5 1017.4 -9.9 -9.999 -99.9 -99.99 -9.99
2019/11/14 02:48 CST    1.08   2.27   14   62   17  50.4  61.5 1017.2 -9.9 -9.999 -99.9 -99.99 -9.99
2019/11/14 02:54 CST    1.06   2.28   14   64   16  50.5  61.5 1017.1 -9.9 -9.999 -99.9 -99.99 -9.99
2019/11/14 03:00 CST    1.05   2.24   12   63   17  50.5  61.5 1017.3 -9.9 -9.999 -99.9 -99.99 -9.99
2019/11/14 03:06 CST    1.04   2.26   13   65   16  50.7  61.5 1017.1 -9.9 -9.999 -99.9 -99.99 -9.99
2019/11/14 03:12 CST    1.02   2.30   14   65   17  50.5  61.3 1017.2 -9.9 -9.999 -99.9 -99.99 -9.99
2019/11/14 03:18 CST    1.01   2.30   12   60   17  50.5  61.3 1017.3 -9.9 -9.999 -99.9 -99.99 -9.99
2019/11/14 03:24 CST    0.99   2.31   13   61   16  50.5  61.3 1017.3 -9.9 -9.999 -99.9 -99.99 -9.99
2019/11/14 03:30 CST    0.97   2.29   12   55   17  50.5  61.3 1017.5 -9.9 -9.999 -99.9 -99.99 -9.99
2019/11/14 03:36 CST    0.96   2.18   14   53   16  50.5  61.2 1017.4 -9.9 -9.999 -99.9 -99.99 -9.99
2019/11/14 03:42 CST    0.94   2.20   14   58   18  50.7  61.2 1017.5 -9.9 -9.999 -99.9 -99.99 -9.99
2019/11/14 03:48 CST    0.92   2.16   14   50   18  50.9  61.2 1017.5 -9.9 -9.999 -99.9 -99.99 -9.99
2019/11/14 03:54 CST    0.91   2.17   15   49   18  50.9  61.2 1017.6 -9.9 -9.999 -99.9 -99.99 -9.99
2019/11/14 04:00 CST    0.89   2.14   15   45   18  50.9  61.2 1017.8 -9.9 -9.999 -99.9 -99.99 -9.99
2019/11/14 04:06 CST    0.87   2.11   16   44   19  50.7  61.2 1017.9 -9.9 -9.999 -99.9 -99.99 -9.99
2019/11/14 04:12 CST    0.85   2.05   14   38   18  50.9  60.6 1018.0 -9.9 -9.999 -99.9 -99.99 -9.99
2019/11/14 04:18 CST    0.84   2.05   16   30   19  50.4  59.9 1018.1 -9.9 -9.999 -99.9 -99.99 -9.99
2019/11/14 04:24 CST    0.82   2.02   15   29   17  50.2  59.5 1018.2 -9.9 -9.999 -99.9 -99.99 -9.99
2019/11/14 04:30 CST    0.80   2.07   15   32   17  50.0  59.9 1018.2 -9.9 -9.999 -99.9 -99.99 -9.99
2019/11/14 04:36 CST    0.78   1.98   13   38   18  50.2  60.1 1018.3 -9.9 -9.999 -99.9 -99.99 -9.99
2019/11/14 04:42 CST    0.76   1.93   14   42   17  50.2  60.3 1018.3 -9.9 -9.999 -99.9 -99.99 -9.99
2019/11/14 04:48 CST    0.74   1.88   13   44   15  50.0  60.3 1018.3 -9.9 -9.999 -99.9 -99.99 -9.99
2019/11/14 04:54 CST    0.72   1.84   12   54   16  50.2  60.3 1018.1 -9.9 -9.999 -99.9 -99.99 -9.99
2019/11/14 05:00 CST    0.70   1.84   14   52   18  49.8  60.3 1017.9 -9.9 -9.999 -99.9 -99.99 -9.99
2019/11/14 05:06 CST    0.67   1.82   13   54   17  50.0  60.4 1018.0 -9.9 -9.999 -99.9 -99.99 -9.99
2019/11/14 05:12 CST    0.65   1.69   14   49   17  50.0  60.8 1018.2 -9.9 -9.999 -99.9 -99.99 -9.99
2019/11/14 05:18 CST    0.63   1.65   14   50   17  50.0  60.8 1018.1 -9.9 -9.999 -99.9 -99.99 -9.99
2019/11/14 05:24 CST    0.61   1.62   14   51   17  50.0  60.8 1018.2 -9.9 -9.999 -99.9 -99.99 -9.99
2019/11/14 05:30 CST    0.58   1.60   14   51   17  50.2  61.0 1018.3 -9.9 -9.999 -99.9 -99.99 -9.99
2019/11/14 05:36 CST    0.56   1.59   13   57   18  50.2  61.0 1018.2 -9.9 -9.999 -99.9 -99.99 -9.99
2019/11/14 05:42 CST    0.53   1.63   15   62   18  50.0  60.8 1018.1 -9.9 -9.999 -99.9 -99.99 -9.99
2019/11/14 05:48 CST    0.51   1.60   15   69   19  50.0  60.8 1017.6 -9.9 -9.999 -99.9 -99.99 -9.99
2019/11/14 05:54 CST    0.48   1.53   16   72   20  50.0  61.0 1017.5 -9.9 -9.999 -99.9 -99.99 -9.99
2019/11/14 06:00 CST    0.45   1.51   17   74   22  50.4  61.0 1017.3 -9.9 -9.999 -99.9 -99.99 -9.99
2019/11/14 06:06 CST    0.43   1.32   14   74   20  50.4  60.8 1017.6 -9.9 -9.999 -99.9 -99.99 -9.99
2019/11/14 06:12 CST    0.40   1.30   14   70   18  50.4  60.8 1017.8 -9.9 -9.999 -99.9 -99.99 -9.99
2019/11/14 06:18 CST    0.37   1.24   14   73   18  50.5  60.8 1018.0 -9.9 -9.999 -99.9 -99.99 -9.99
2019/11/14 06:24 CST    0.35   1.21   15   76   19  50.5  60.8 1017.9 -9.9 -9.999 -99.9 -99.99 -9.99
2019/11/14 06:30 CST    0.32   1.31   15   71   19  50.5  60.8 1018.0 -9.9 -9.999 -99.9 -99.99 -9.99
2019/11/14 06:36 CST    0.29   1.32   14   67   18  50.5  60.8 1018.1 -9.9 -9.999 -99.9 -99.99 -9.99
2019/11/14 06:42 CST    0.27   1.38   13   67   17  50.7  60.8 1018.0 -9.9 -9.999 -99.9 -99.99 -9.99
2019/11/14 06:48 CST    0.24   1.49   15   68   19  50.9  60.8 1018.0 -9.9 -9.999 -99.9 -99.99 -9.99
2019/11/14 06:54 CST    0.21   1.41   15   69   19  51.1  60.8 1018.2 -9.9 -9.999 -99.9 -99.99 -9.99
2019/11/14 07:00 CST    0.19   1.29   13   68   18  51.3  60.8 1018.5 -9.9 -9.999 -99.9 -99.99 -9.99
2019/11/14 07:06 CST    0.16   1.33   11   70   15  51.4  60.4 1018.6 -9.9 -9.999 -99.9 -99.99 -9.99
2019/11/14 07:12 CST    0.13   1.24   13   74   16  51.3  60.3 1018.6 -9.9 -9.999 -99.9 -99.99 -9.99
2019/11/14 07:18 CST    0.11   1.36   13   71   17  51.3  60.4 1018.7 -9.9 -9.999 -99.9 -99.99 -9.99
2019/11/14 07:24 CST    0.08   1.37   13   64   17  51.4  60.3 1018.8 -9.9 -9.999 -99.9 -99.99 -9.99
2019/11/14 07:30 CST    0.06   1.37   13   59   17  51.4  60.6 1018.8 -9.9 -9.999 -99.9 -99.99 -9.99
2019/11/14 07:36 CST    0.03   1.36   14   56   17  51.3  59.9 1018.8 -9.9 -9.999 -99.9 -99.99 -9.99
2019/11/14 07:42 CST    0.01   1.29   15   53   18  51.4  60.1 1018.8 -9.9 -9.999 -99.9 -99.99 -9.99
2019/11/14 07:48 CST   -0.01   1.14   16   54   19  51.3  60.1 1018.9 -9.9 -9.999 -99.9 -99.99 -9.99
2019/11/14 07:54 CST   -0.03   1.19   15   55   19  51.4  60.1 1019.0 -9.9 -9.999 -99.9 -99.99 -9.99
2019/11/14 08:00 CST   -0.06   1.22   16   56   20  51.3  60.3 1019.0 -9.9 -9.999 -99.9 -99.99 -9.99
2019/11/14 08:06 CST   -0.08   1.25   15   60   19  51.3  60.6 1019.1 -9.9 -9.999 -99.9 -99.99 -9.99
2019/11/14 08:12 CST   -0.10   1.20   14   53   19  51.1  60.6 1019.1 -9.9 -9.999 -99.9 -99.99 -9.99
2019/11/14 08:18 CST   -0.12   1.15   17   53   21  50.7  60.6 1019.1 -9.9 -9.999 -99.9 -99.99 -9.99
2019/11/14 08:24 CST   -0.13   1.14   16   49   19  50.4  60.6 1019.2 -9.9 -9.999 -99.9 -99.99 -9.99
2019/11/14 08:30 CST   -0.15   1.14   15   49   20  50.5  60.8 1019.3 -9.9 -9.999 -99.9 -99.99 -9.99
2019/11/14 08:36 CST   -0.17   1.15   15   48   20  50.2  60.4 1019.4 -9.9 -9.999 -99.9 -99.99 -9.99
2019/11/14 08:42 CST   -0.18   1.11   17   49   19  50.2  60.4 1019.4 -9.9 -9.999 -99.9 -99.99 -9.99
2019/11/14 08:48 CST   -0.19   1.11   16   51   20  50.2  60.3 1019.5 -9.9 -9.999 -99.9 -99.99 -9.99
2019/11/14 08:54 CST   -0.21   1.10   16   52   21  50.0  59.9 1019.5 -9.9 -9.999 -99.9 -99.99 -9.99
2019/11/14 09:00 CST   -0.22   1.12   16   53   20  50.2  59.7 1019.6 -9.9 -9.999 -99.9 -99.99 -9.99
2019/11/14 09:06 CST   -0.23   1.19   15   50   19  50.0  59.5 1019.6 -9.9 -9.999 -99.9 -99.99 -9.99
2019/11/14 09:12 CST   -0.24   1.17   16   48   21  50.4  59.9 1019.7 -9.9 -9.999 -99.9 -99.99 -9.99
2019/11/14 09:18 CST   -0.24   1.21   17   45   20  50.2  59.7 1019.8 -9.9 -9.999 -99.9 -99.99 -9.99
2019/11/14 09:24 CST   -0.25   1.19   15   39   20  50.4  59.7 1020.0 -9.9 -9.999 -99.9 -99.99 -9.99
2019/11/14 09:30 CST   -0.25   1.17   16   33   20  50.2  59.4 1020.3 -9.9 -9.999 -99.9 -99.99 -9.99
2019/11/14 09:36 CST   -0.26   1.19   17   35   19  49.6  59.2 1020.3 -9.9 -9.999 -99.9 -99.99 -9.99
2019/11/14 09:42 CST   -0.26   1.19   17   46   19  49.6  58.8 1020.3 -9.9 -9.999 -99.9 -99.99 -9.99
2019/11/14 09:48 CST   -0.26   1.18   15   51   19  49.8  58.6 1020.3 -9.9 -9.999 -99.9 -99.99 -9.99
2019/11/14 09:54 CST   -0.25   1.17   17   47   20  49.8  58.8 1020.4 -9.9 -9.999 -99.9 -99.99 -9.99
2019/11/14 10:00 CST   -0.25   1.12   17   44   20  49.8  58.8 1020.5 -9.9 -9.999 -99.9 -99.99 -9.99
2019/11/14 10:06 CST   -0.25   1.16   17   52   20  50.0  58.6 1020.5 -9.9 -9.999 -99.9 -99.99 -9.99
2019/11/14 10:12 CST   -0.24   1.12   16   49   19  50.0  58.3 1020.5 -9.9 -9.999 -99.9 -99.99 -9.99
2019/11/14 10:18 CST   -0.23   1.16   17   47   20  50.2  58.8 1020.5 -9.9 -9.999 -99.9 -99.99 -9.99
2019/11/14 10:24 CST   -0.22   1.19   14   43   21  50.2  58.5 1020.7 -9.9 -9.999 -99.9 -99.99 -9.99
2019/11/14 10:30 CST   -0.21   1.23   17   46   20  50.0  58.3 1020.7 -9.9 -9.999 -99.9 -99.99 -9.99
2019/11/14 10:36 CST   -0.20   1.25   14   47   19  50.2  58.3 1020.8 -9.9 -9.999 -99.9 -99.99 -9.99
2019/11/14 10:42 CST   -0.18   1.24   17   45   20  50.0  58.1 1020.8 -9.9 -9.999 -99.9 -99.99 -9.99
2019/11/14 10:48 CST   -0.16   1.26   17   42   20  49.8  57.9 1020.8 -9.9 -9.999 -99.9 -99.99 -9.99
2019/11/14 10:54 CST   -0.15   1.30   17   40   21  49.8  57.9 1020.9 -9.9 -9.999 -99.9 -99.99 -9.99
2019/11/14 11:00 CST   -0.13   1.36   16   33   21  49.6  57.6 1021.1 -9.9 -9.999 -99.9 -99.99 -9.99
2019/11/14 11:06 CST   -0.11   1.30   16   32   20  49.6  57.6 1021.1 -9.9 -9.999 -99.9 -99.99 -9.99
2019/11/14 11:12 CST   -0.09   1.28   17   41   22  49.6  57.9 1021.0 -9.9 -9.999 -99.9 -99.99 -9.99
2019/11/14 11:18 CST   -0.07   1.25   18   51   22  49.6  57.7 1020.9 -9.9 -9.999 -99.9 -99.99 -9.99
2019/11/14 11:24 CST   -0.04   1.32   18   54   22  49.6  57.7 1020.8 -9.9 -9.999 -99.9 -99.99 -9.99
2019/11/14 11:30 CST   -0.02   1.33   20   51   24  49.5  57.7 1020.8 -9.9 -9.999 -99.9 -99.99 -9.99
2019/11/14 11:36 CST    0.01   1.37   19   50   25  49.6  57.4 1020.7 -9.9 -9.999 -99.9 -99.99 -9.99
2019/11/14 11:42 CST    0.03   1.39   19   52   23  49.6  57.4 1020.8 -9.9 -9.999 -99.9 -99.99 -9.99
2019/11/14 11:48 CST    0.06   1.45   17   50   23  49.6  57.2 1020.9 -9.9 -9.999 -99.9 -99.99 -9.99
2019/11/14 11:54 CST    0.09   1.52   16   48   22  49.6  57.4 1020.8 -9.9 -9.999 -99.9 -99.99 -9.99
2019/11/14 12:00 CST    0.12   1.55   17   45   23  49.6  57.2 1020.7 -9.9 -9.999 -99.9 -99.99 -9.99
2019/11/14 12:06 CST    0.14   1.55   20   46   22  49.5  57.2 1020.8 -9.9 -9.999 -99.9 -99.99 -9.99
2019/11/14 12:12 CST    0.17   1.53   17   45   22  49.5  57.2 1020.8 -9.9 -9.999 -99.9 -99.99 -9.99
2019/11/14 12:18 CST    0.20   1.54   19   42   22  49.5  57.2 1020.8 -9.9 -9.999 -99.9 -99.99 -9.99
2019/11/14 12:24 CST    0.23   1.65   18   41   21  49.3  57.2 1020.7 -9.9 -9.999 -99.9 -99.99 -9.99
2019/11/14 12:30 CST    0.27   1.66   19   42   23  49.1  57.4 1020.8 -9.9 -9.999 -99.9 -99.99 -9.99
2019/11/14 12:36 CST    0.30   1.69   17   37   22  48.9  57.6 1020.8 -9.9 -9.999 -99.9 -99.99 -9.99
2019/11/14 12:42 CST    0.33   1.67   16   36   21  49.3  57.4 1020.9 -9.9 -9.999 -99.9 -99.99 -9.99
2019/11/14 12:48 CST    0.36   1.68   16   41   20  49.3  57.6 1020.7 -9.9 -9.999 -99.9 -99.99 -9.99
2019/11/14 12:54 CST    0.39   1.66   17   44   21  48.9  57.6 1020.5 -9.9 -9.999 -99.9 -99.99 -9.99
2019/11/14 13:00 CST    0.43   1.58   17   46   21  48.9  57.7 1020.4 -9.9 -9.999 -99.9 -99.99 -9.99
2019/11/14 13:06 CST    0.46   1.60   18   46   20  49.1  57.9 1020.4 -9.9 -9.999 -99.9 -99.99 -9.99
2019/11/14 13:12 CST    0.49   1.59   18   40   21  49.1  57.6 1020.3 -9.9 -9.999 -99.9 -99.99 -9.99
2019/11/14 13:18 CST    0.52   1.60   18   46   21  49.1  57.6 1020.3 -9.9 -9.999 -99.9 -99.99 -9.99
2019/11/14 13:24 CST    0.55   1.67   17   48   21  49.3  57.6 1020.3 -9.9 -9.999 -99.9 -99.99 -9.99
2019/11/14 13:30 CST    0.58   1.70   18   48   22  48.9  57.6 1020.1 -9.9 -9.999 -99.9 -99.99 -9.99
2019/11/14 13:36 CST    0.61   1.77   19   47   22  48.9  57.6 1020.0 -9.9 -9.999 -99.9 -99.99 -9.99
2019/11/14 13:42 CST    0.64   1.80   19   46   23  49.3  57.6 1020.0 -9.9 -9.999 -99.9 -99.99 -9.99
2019/11/14 13:48 CST    0.67   1.87   18   38   22  49.3  57.7 1020.2 -9.9 -9.999 -99.9 -99.99 -9.99
2019/11/14 13:54 CST    0.69   1.90   17   38   22  49.3  57.9 1020.4 -9.9 -9.999 -99.9 -99.99 -9.99
2019/11/14 14:00 CST    0.72   1.92   20   35   23  49.1  58.3 1020.5 -9.9 -9.999 -99.9 -99.99 -9.99
2019/11/14 14:06 CST    0.74   1.90   17   39   22  49.3  58.5 1020.5 -9.9 -9.999 -99.9 -99.99 -9.99
2019/11/14 14:12 CST    0.76   1.90   19   37   23  49.3  58.6 1020.3 -9.9 -9.999 -99.9 -99.99 -9.99
2019/11/14 14:18 CST    0.79   1.91   18   36   23  49.1  58.6 1020.4 -9.9 -9.999 -99.9 -99.99 -9.99
2019/11/14 14:24 CST    0.81   1.95   19   39   23  48.7  58.5 1020.3 -9.9 -9.999 -99.9 -99.99 -9.99
2019/11/14 14:30 CST    0.83   1.98   21   40   24  48.4  58.5 1020.2 -9.9 -9.999 -99.9 -99.99 -9.99
2019/11/14 14:36 CST    0.84   1.98   21   42   24  48.6  58.5 1020.4 -9.9 -9.999 -99.9 -99.99 -9.99
2019/11/14 14:42 CST    0.86   1.99   17   41   23  48.7  58.5 1020.5 -9.9 -9.999 -99.9 -99.99 -9.99
2019/11/14 14:48 CST    0.87   2.00   20   41   25  48.6  58.5 1020.8 -9.9 -9.999 -99.9 -99.99 -9.99
2019/11/14 14:54 CST    0.89   2.04   18   39   23  48.7  58.5 1020.9 -9.9 -9.999 -99.9 -99.99 -9.99
2019/11/14 15:00 CST    0.90   2.08   20   36   23  48.4  58.5 1020.9 -9.9 -9.999 -99.9 -99.99 -9.99
2019/11/14 15:06 CST    0.91   2.02   20   39   24  48.4  59.0 1020.9 -9.9 -9.999 -99.9 -99.99 -9.99
2019/11/14 15:12 CST    0.92   1.99   21   41   24  48.4  59.4 1021.0 -9.9 -9.999 -99.9 -99.99 -9.99
2019/11/14 15:18 CST    0.93   2.00   21   32   23  47.8  59.5 1021.2 -9.9 -9.999 -99.9 -99.99 -9.99
2019/11/14 15:24 CST    0.94 -99.99 -999 -999 -999 -99.9 -99.9 -999.9 -9.9 -9.999 -99.9 -99.99 -9.99
2019/11/14 15:30 CST    0.95 -99.99 -999 -999 -999 -99.9 -99.9 -999.9 -9.9 -9.999 -99.9 -99.99 -9.99
2019/11/14 15:36 CST    0.95 -99.99 -999 -999 -999 -99.9 -99.9 -999.9 -9.9 -9.999 -99.9 -99.99 -9.99
2019/11/14 15:42 CST    0.96 -99.99 -999 -999 -999 -99.9 -99.9 -999.9 -9.9 -9.999 -99.9 -99.99 -9.99
2019/11/14 15:48 CST    0.96 -99.99 -999 -999 -999 -99.9 -99.9 -999.9 -9.9 -9.999 -99.9 -99.99 -9.99
2019/11/14 15:54 CST    0.97 -99.99 -999 -999 -999 -99.9 -99.9 -999.9 -9.9 -9.999 -99.9 -99.99 -9.99
2019/11/14 16:00 CST    0.97 -99.99 -999 -999 -999 -99.9 -99.9 -999.9 -9.9 -9.999 -99.9 -99.99 -9.99
2019/11/14 16:06 CST    0.98 -99.99 -999 -999 -999 -99.9 -99.9 -999.9 -9.9 -9.999 -99.9 -99.99 -9.99
2019/11/14 16:12 CST    0.98 -99.99 -999 -999 -999 -99.9 -99.9 -999.9 -9.9 -9.999 -99.9 -99.99 -9.99
2019/11/14 16:18 CST    0.98 -99.99 -999 -999 -999 -99.9 -99.9 -999.9 -9.9 -9.999 -99.9 -99.99 -9.99
2019/11/14 16:24 CST    0.99 -99.99 -999 -999 -999 -99.9 -99.9 -999.9 -9.9 -9.999 -99.9 -99.99 -9.99
2019/11/14 16:30 CST    0.99 -99.99 -999 -999 -999 -99.9 -99.9 -999.9 -9.9 -9.999 -99.9 -99.99 -9.99
2019/11/14 16:36 CST    1.00 -99.99 -999 -999 -999 -99.9 -99.9 -999.9 -9.9 -9.999 -99.9 -99.99 -9.99
2019/11/14 16:42 CST    1.00 -99.99 -999 -999 -999 -99.9 -99.9 -999.9 -9.9 -9.999 -99.9 -99.99 -9.99
2019/11/14 16:48 CST    1.00 -99.99 -999 -999 -999 -99.9 -99.9 -999.9 -9.9 -9.999 -99.9 -99.99 -9.99
2019/11/14 16:54 CST    1.01 -99.99 -999 -999 -999 -99.9 -99.9 -999.9 -9.9 -9.999 -99.9 -99.99 -9.99
2019/11/14 17:00 CST    1.01 -99.99 -999 -999 -999 -99.9 -99.9 -999.9 -9.9 -9.999 -99.9 -99.99 -9.99
2019/11/14 17:06 CST    1.02 -99.99 -999 -999 -999 -99.9 -99.9 -999.9 -9.9 -9.999 -99.9 -99.99 -9.99
2019/11/14 17:12 CST    1.02 -99.99 -999 -999 -999 -99.9 -99.9 -999.9 -9.9 -9.999 -99.9 -99.99 -9.99
2019/11/14 17:18 CST    1.03 -99.99 -999 -999 -999 -99.9 -99.9 -999.9 -9.9 -9.999 -99.9 -99.99 -9.99
2019/11/14 17:24 CST    1.03 -99.99 -999 -999 -999 -99.9 -99.9 -999.9 -9.9 -9.999 -99.9 -99.99 -9.99
2019/11/14 17:30 CST    1.03 -99.99 -999 -999 -999 -99.9 -99.9 -999.9 -9.9 -9.999 -99.9 -99.99 -9.99
2019/11/14 17:36 CST    1.04 -99.99 -999 -999 -999 -99.9 -99.9 -999.9 -9.9 -9.999 -99.9 -99.99 -9.99
2019/11/14 17:42 CST    1.04 -99.99 -999 -999 -999 -99.9 -99.9 -999.9 -9.9 -9.999 -99.9 -99.99 -9.99
2019/11/14 17:48 CST    1.05 -99.99 -999 -999 -999 -99.9 -99.9 -999.9 -9.9 -9.999 -99.9 -99.99 -9.99
2019/11/14 17:54 CST    1.05 -99.99 -999 -999 -999 -99.9 -99.9 -999.9 -9.9 -9.999 -99.9 -99.99 -9.99
2019/11/14 18:00 CST    1.06 -99.99 -999 -999 -999 -99.9 -99.9 -999.9 -9.9 -9.999 -99.9 -99.99 -9.99
2019/11/14 18:06 CST    1.06 -99.99 -999 -999 -999 -99.9 -99.9 -999.9 -9.9 -9.999 -99.9 -99.99 -9.99
2019/11/14 18:12 CST    1.07 -99.99 -999 -999 -999 -99.9 -99.9 -999.9 -9.9 -9.999 -99.9 -99.99 -9.99
2019/11/14 18:18 CST    1.08 -99.99 -999 -999 -999 -99.9 -99.9 -999.9 -9.9 -9.999 -99.9 -99.99 -9.99
2019/11/14 18:24 CST    1.08 -99.99 -999 -999 -999 -99.9 -99.9 -999.9 -9.9 -9.999 -99.9 -99.99 -9.99
2019/11/14 18:30 CST    1.09 -99.99 -999 -999 -999 -99.9 -99.9 -999.9 -9.9 -9.999 -99.9 -99.99 -9.99
2019/11/14 18:36 CST    1.09 -99.99 -999 -999 -999 -99.9 -99.9 -999.9 -9.9 -9.999 -99.9 -99.99 -9.99
2019/11/14 18:42 CST    1.10 -99.99 -999 -999 -999 -99.9 -99.9 -999.9 -9.9 -9.999 -99.9 -99.99 -9.99
2019/11/14 18:48 CST    1.11 -99.99 -999 -999 -999 -99.9 -99.9 -999.9 -9.9 -9.999 -99.9 -99.99 -9.99
2019/11/14 18:54 CST    1.11 -99.99 -999 -999 -999 -99.9 -99.9 -999.9 -9.9 -9.999 -99.9 -99.99 -9.99
2019/11/14 19:00 CST    1.12 -99.99 -999 -999 -999 -99.9 -99.9 -999.9 -9.9 -9.999 -99.9 -99.99 -9.99
2019/11/14 19:06 CST    1.13 -99.99 -999 -999 -999 -99.9 -99.9 -999.9 -9.9 -9.999 -99.9 -99.99 -9.99
2019/11/14 19:12 CST    1.13 -99.99 -999 -999 -999 -99.9 -99.9 -999.9 -9.9 -9.999 -99.9 -99.99 -9.99
2019/11/14 19:18 CST    1.14 -99.99 -999 -999 -999 -99.9 -99.9 -999.9 -9.9 -9.999 -99.9 -99.99 -9.99
2019/11/14 19:24 CST    1.15 -99.99 -999 -999 -999 -99.9 -99.9 -999.9 -9.9 -9.999 -99.9 -99.99 -9.99
2019/11/14 19:30 CST    1.15 -99.99 -999 -999 -999 -99.9 -99.9 -999.9 -9.9 -9.999 -99.9 -99.99 -9.99
2019/11/14 19:36 CST    1.16 -99.99 -999 -999 -999 -99.9 -99.9 -999.9 -9.9 -9.999 -99.9 -99.99 -9.99
2019/11/14 19:42 CST    1.17 -99.99 -999 -999 -999 -99.9 -99.9 -999.9 -9.9 -9.999 -99.9 -99.99 -9.99
2019/11/14 19:48 CST    1.18 -99.99 -999 -999 -999 -99.9 -99.9 -999.9 -9.9 -9.999 -99.9 -99.99 -9.99
2019/11/14 19:54 CST    1.18 -99.99 -999 -999 -999 -99.9 -99.9 -999.9 -9.9 -9.999 -99.9 -99.99 -9.99
2019/11/14 20:00 CST    1.19 -99.99 -999 -999 -999 -99.9 -99.9 -999.9 -9.9 -9.999 -99.9 -99.99 -9.99
2019/11/14 20:06 CST    1.20 -99.99 -999 -999 -999 -99.9 -99.9 -999.9 -9.9 -9.999 -99.9 -99.99 -9.99
2019/11/14 20:12 CST    1.21 -99.99 -999 -999 -999 -99.9 -99.9 -999.9 -9.9 -9.999 -99.9 -99.99 -9.99
2019/11/14 20:18 CST    1.21 -99.99 -999 -999 -999 -99.9 -99.9 -999.9 -9.9 -9.999 -99.9 -99.99 -9.99
2019/11/14 20:24 CST    1.22 -99.99 -999 -999 -999 -99.9 -99.9 -999.9 -9.9 -9.999 -99.9 -99.99 -9.99
2019/11/14 20:30 CST    1.23 -99.99 -999 -999 -999 -99.9 -99.9 -999.9 -9.9 -9.999 -99.9 -99.99 -9.99
2019/11/14 20:36 CST    1.24 -99.99 -999 -999 -999 -99.9 -99.9 -999.9 -9.9 -9.999 -99.9 -99.99 -9.99
2019/11/14 20:42 CST    1.24 -99.99 -999 -999 -999 -99.9 -99.9 -999.9 -9.9 -9.999 -99.9 -99.99 -9.99
2019/11/14 20:48 CST    1.25 -99.99 -999 -999 -999 -99.9 -99.9 -999.9 -9.9 -9.999 -99.9 -99.99 -9.99
2019/11/14 20:54 CST    1.25 -99.99 -999 -999 -999 -99.9 -99.9 -999.9 -9.9 -9.999 -99.9 -99.99 -9.99
2019/11/14 21:00 CST    1.26 -99.99 -999 -999 -999 -99.9 -99.9 -999.9 -9.9 -9.999 -99.9 -99.99 -9.99
2019/11/14 21:06 CST    1.26 -99.99 -999 -999 -999 -99.9 -99.9 -999.9 -9.9 -9.999 -99.9 -99.99 -9.99
2019/11/14 21:12 CST    1.27 -99.99 -999 -999 -999 -99.9 -99.9 -999.9 -9.9 -9.999 -99.9 -99.99 -9.99
2019/11/14 21:18 CST    1.27 -99.99 -999 -999 -999 -99.9 -99.9 -999.9 -9.9 -9.999 -99.9 -99.99 -9.99
2019/11/14 21:24 CST    1.27 -99.99 -999 -999 -999 -99.9 -99.9 -999.9 -9.9 -9.999 -99.9 -99.99 -9.99
2019/11/14 21:30 CST    1.28 -99.99 -999 -999 -999 -99.9 -99.9 -999.9 -9.9 -9.999 -99.9 -99.99 -9.99
2019/11/14 21:36 CST    1.28 -99.99 -999 -999 -999 -99.9 -99.9 -999.9 -9.9 -9.999 -99.9 -99.99 -9.99